TimeEDT,TemperatureF,Dew PointF,Humidity,Sea Level PressureIn,VisibilityMPH,Wind Direction,Wind SpeedMPH,Gust SpeedMPH,PrecipitationIn,Events,Conditions,WindDirDegrees,DateUTC
12:56 AM,48.0,44.1,86,29.94,7.0,East,3.5,-,N/A,,Clear,90,2012-10-18 04:56:00
1:56 AM,48.0,44.1,86,29.93,7.0,East,4.6,-,N/A,,Clear,90,2012-10-18 05:56:00
2:56 AM,48.0,44.1,86,29.93,6.0,East,3.5,-,N/A,,Scattered Clouds,90,2012-10-18 06:56:00
3:13 AM,48.2,44.6,87,29.92,6.0,East,3.5,-,N/A,,Mostly Cloudy,80,2012-10-18 07:13:00
3:39 AM,48.2,44.6,87,29.92,5.0,ESE,3.5,-,N/A,,Overcast,120,2012-10-18 07:39:00
3:56 AM,48.9,46.0,90,29.93,5.0,SE,4.6,-,N/A,,Overcast,130,2012-10-18 07:56:00
4:43 AM,48.2,44.6,87,29.92,4.0,Calm,Calm,-,N/A,,Scattered Clouds,0,2012-10-18 08:43:00
4:56 AM,45.0,44.1,97,29.93,4.0,ESE,3.5,-,N/A,,Scattered Clouds,110,2012-10-18 08:56:00
5:56 AM,46.4,44.6,93,29.93,4.0,Calm,Calm,-,N/A,,Scattered Clouds,0,2012-10-18 09:56:00
6:56 AM,46.9,45.0,93,29.95,3.0,Calm,Calm,-,N/A,,Clear,0,2012-10-18 10:56:00
7:22 AM,46.4,44.6,93,29.94,2.5,Calm,Calm,-,N/A,,Scattered Clouds,0,2012-10-18 11:22:00
7:56 AM,46.0,45.0,96,29.94,2.0,Calm,Calm,-,N/A,,Partly Cloudy,0,2012-10-18 11:56:00
8:07 AM,48.2,46.4,93,29.94,3.0,Calm,Calm,-,N/A,,Clear,0,2012-10-18 12:07:00
8:56 AM,54.0,51.1,90,29.96,5.0,SE,4.6,-,0.01,,Partly Cloudy,130,2012-10-18 12:56:00
9:56 AM,59.0,51.8,77,29.96,9.0,SE,3.5,-,N/A,,Scattered Clouds,140,2012-10-18 13:56:00
10:56 AM,63.0,48.0,58,29.95,10.0,SSE,11.5,20.7,N/A,,Mostly Cloudy,150,2012-10-18 14:56:00
11:56 AM,62.6,46.4,55,29.94,10.0,South,10.4,-,N/A,,Overcast,180,2012-10-18 15:56:00
12:56 PM,64.0,48.9,58,29.89,10.0,SE,12.7,19.6,N/A,,Overcast,140,2012-10-18 16:56:00
1:56 PM,66.9,48.0,51,29.87,10.0,SSE,12.7,-,N/A,,Scattered Clouds,160,2012-10-18 17:56:00
2:56 PM,66.0,48.0,52,29.86,10.0,SSE,10.4,23.0,N/A,,Mostly Cloudy,160,2012-10-18 18:56:00
3:56 PM,68.0,48.9,50,29.87,10.0,SSE,13.8,-,N/A,,Mostly Cloudy,150,2012-10-18 19:56:00
4:56 PM,64.9,50.0,58,29.86,10.0,SSE,10.4,-,N/A,,Mostly Cloudy,150,2012-10-18 20:56:00
5:56 PM,64.9,51.1,61,29.87,10.0,SE,11.5,-,N/A,,Mostly Cloudy,140,2012-10-18 21:56:00
6:56 PM,62.1,53.1,72,29.88,10.0,SE,15.0,-,N/A,,Mostly Cloudy,130,2012-10-18 22:56:00
7:56 PM,62.1,53.1,72,29.88,10.0,ESE,12.7,-,N/A,,Overcast,120,2012-10-18 23:56:00
8:36 PM,60.8,53.6,77,29.85,9.0,ESE,16.1,-,0.00,Rain-Thunderstorm,Light Thunderstorms and Rain,120,2012-10-19 00:36:00
8:56 PM,60.1,53.1,78,29.87,5.0,ESE,5.8,-,0.00,Rain-Thunderstorm,Thunderstorms and Rain,120,2012-10-19 00:56:00
9:27 PM,57.2,53.6,88,29.86,5.0,East,4.6,-,0.10,Rain,Rain,90,2012-10-19 01:27:00
9:39 PM,57.2,55.4,94,29.88,2.0,WNW,6.9,-,0.14,Rain-Thunderstorm,Heavy Thunderstorms and Rain,300,2012-10-19 01:39:00
9:56 PM,57.0,55.9,96,29.88,2.0,NNE,4.6,-,0.31,Rain-Thunderstorm,Heavy Thunderstorms and Rain,30,2012-10-19 01:56:00
10:16 PM,57.2,55.4,94,29.86,3.0,East,6.9,-,0.16,Rain,Rain,80,2012-10-19 02:16:00
10:56 PM,57.9,55.0,90,29.82,9.0,East,8.1,-,N/A,Rain-Thunderstorm,Light Thunderstorms and Rain,90,2012-10-19 02:56:00
11:07 PM,57.2,55.4,94,29.83,5.0,East,6.9,-,0.00,Rain-Thunderstorm,Thunderstorms and Rain,100,2012-10-19 03:07:00
11:45 PM,57.2,55.4,94,29.86,2.0,WNW,19.6,-,N/A,Rain-Thunderstorm,Heavy Thunderstorms and Rain,290,2012-10-19 03:45:00
11:49 PM,57.2,55.4,94,29.85,1.5,WNW,17.3,21.9,0.20,Rain-Thunderstorm,Heavy Thunderstorms and Rain,300,2012-10-19 03:49:00
11:56 PM,57.2,55.4,94,29.84,2.0,North,9.2,-,N/A,Rain-Thunderstorm,Heavy Thunderstorms and Rain,360,2012-10-19 03:56:00